Find OneWeb SL0187

NORAD ID: 48221 Int'l Des: 2021-031 Owner: ONEWEBN Country: UK Constellation: oneweb operational
又名: ONEWEB-0187 spacetrack, celestrak
LEOCIRCULARPOLARONEWEB_TYPE

当前视图

正在加载3D地球...

About OneWeb SL0187

OneWeb SL0187 (NORAD 48221) is a oneweb constellation satellite launched Apr 25, 2021 by ONEWEBN of UK. It operates in LEO, CIRCULAR, POLAR, ONEWEB_TYPE orbit with a mass of 148.00 kg.

即将过境

Passes for default location (London). Set your location on the main map for personalized predictions.

高度历史

Loading altitude history...

两行轨道根数

1 48221U 21031M 26251.62313930 -.00000186 00000-0 -53601-3 0 9992
2 48221 87.8897 273.0762 0001775 91.1865 268.9468 13.14503753259228
Epoch: Sep 8, 2026 • Age: 18 hours

当前状态

高度 1209.0 km
远地点 / 近地点 N/A
速度 7.25 km/s
星下点 -2.02°S, 146.21°E
发射日期 Apr 25, 2021
运行时间 5.3 years
类型 internet

技术详情

分类 Payload
质量 148.00 kg
干质量 140.00 kg
总质量 148.00 kg
长度 1.30 m
直径 1.00 m
跨度 5.00 m
形状 Trapezoid+2 pan
制造商 ONEWUS
平台类型 ARROW
阶段状态 In Orbit
所有者/国家 ONEWEBN/UK

Most Searched